When you browse on this site, cookies collect data to enhance your experience and personalize the content and advertising you see.
Visit our Privacy Policy to learn more. By continuing to use the site, you agree to this use of cookies and data.
  • In Slovakia
  • List of Countries
  • For 7 days
  • Water Temperature
  • Weather Map
  • Weather Widgets
  • user-avatar
    Login

    Hourly Weather Vanadzor

    Today, 19 August, Monday

    Time Temperature Precipitation Wind Pressure Humidity
    00:00 +17°C° 0 mm 2 mps 636 mmHg 54%
    01:00 +18°C° 0 mm 1 mps 636 mmHg 55%
    02:00 +16°C° 0 mm 1 mps 636 mmHg 56%
    03:00 +16°C° 0 mm 1 mps 636 mmHg 60%
    04:00 +16°C° 0 mm 1 mps 636 mmHg 61%
    05:00 +16°C° 0 mm 1 mps 636 mmHg 62%
    06:00 +16°C° 0 mm 1 mps 636 mmHg 62%
    07:00 +19°C° 0 mm 1 mps 637 mmHg 58%
    08:00 +21°C° 0 mm 2 mps 638 mmHg 54%
    09:00 +24°C° 0 mm 2 mps 639 mmHg 50%
    10:00 +25°C° 0 mm 2 mps 639 mmHg 48%
    11:00 +26°C° 0 mm 2 mps 639 mmHg 46%
    12:00 +27°C° 0 mm 3 mps 639 mmHg 44%
    13:00 +28°C° 0 mm 3 mps 639 mmHg 44%
    14:00 +28°C° 0 mm 3 mps 639 mmHg 44%
    15:00 +28°C° 0 mm 3 mps 639 mmHg 44%
    16:00 +27°C° 0 mm 3 mps 639 mmHg 48%
    17:00 +25°C° 0 mm 2 mps 639 mmHg 52%
    18:00 +24°C° 0 mm 2 mps 639 mmHg 56%
    19:00 +23°C° 0 mm 1 mps 639 mmHg 56%
    20:00 +21°C° 0 mm 1 mps 639 mmHg 55%
    21:00 +20°C° 0 mm 1 mps 639 mmHg 54%
    22:00 +19°C° 0 mm 1 mps 639 mmHg 52%
    23:00 +19°C° 0 mm 1 mps 639 mmHg 51%

    Tomorrow, 20 August, Tuesday

    Time Temperature Precipitation Wind Pressure Humidity
    00:00 +18°C° 0 mm 1 mps 638 mmHg 49%
    01:00 +18°C° 0 mm 1 mps 638 mmHg 49%
    02:00 +16°C° 0 mm 1 mps 638 mmHg 49%
    03:00 +16°C° 0 mm 1 mps 638 mmHg 49%
    04:00 +16°C° 0 mm 1 mps 639 mmHg 51%
    05:00 +16°C° 0 mm 1 mps 639 mmHg 53%
    06:00 +16°C° 0 mm 1 mps 639 mmHg 55%
    07:00 +19°C° 0 mm 1 mps 639 mmHg 51%
    08:00 +21°C° 0 mm 2 mps 640 mmHg 47%
    09:00 +24°C° 0 mm 2 mps 641 mmHg 43%
    10:00 +25°C° 0 mm 2 mps 641 mmHg 42%
    11:00 +26°C° 0 mm 2 mps 641 mmHg 41%
    12:00 +27°C° 0 mm 3 mps 640 mmHg 39%
    13:00 +28°C° 0 mm 3 mps 640 mmHg 39%
    14:00 +28°C° 0 mm 3 mps 640 mmHg 39%
    15:00 +28°C° 0 mm 3 mps 640 mmHg 39%
    16:00 +27°C° 0 mm 3 mps 639 mmHg 43%
    17:00 +25°C° 0 mm 2 mps 639 mmHg 47%
    18:00 +24°C° 0 mm 2 mps 638 mmHg 52%
    19:00 +21°C° 0 mm 2 mps 638 mmHg 50%
    20:00 +19°C° 0 mm 2 mps 638 mmHg 49%
    21:00 +19°C° 0 mm 1 mps 638 mmHg 48%
    22:00 +18°C° 0 mm 1 mps 638 mmHg 46%
    23:00 +18°C° 0 mm 1 mps 638 mmHg 45%

    Day after tomorrow, 21 August, Wednesday

    Time Temperature Precipitation Wind Pressure Humidity
    00:00 +18°C° 0 mm 1 mps 638 mmHg 43%
    01:00 +16°C° 0 mm 1 mps 638 mmHg 42%
    02:00 +16°C° 0 mm 1 mps 638 mmHg 41%
    03:00 +16°C° 0 mm 1 mps 638 mmHg 41%
    04:00 +16°C° 0 mm 1 mps 638 mmHg 43%
    05:00 +16°C° 0 mm 1 mps 637 mmHg 44%
    06:00 +16°C° 0 mm 1 mps 637 mmHg 46%
    07:00 +19°C° 0 mm 1 mps 638 mmHg 43%
    08:00 +22°C° 0 mm 1 mps 639 mmHg 39%
    09:00 +24°C° 0 mm 2 mps 640 mmHg 36%
    10:00 +26°C° 0 mm 2 mps 640 mmHg 35%
    11:00 +27°C° 0 mm 2 mps 640 mmHg 35%
    12:00 +28°C° 0 mm 3 mps 639 mmHg 35%
    13:00 +28°C° 0 mm 3 mps 639 mmHg 35%
    14:00 +28°C° 0 mm 3 mps 639 mmHg 36%
    15:00 +28°C° 0 mm 3 mps 638 mmHg 37%
    16:00 +27°C° 0 mm 3 mps 638 mmHg 42%
    17:00 +25°C° 0 mm 2 mps 637 mmHg 46%
    18:00 +24°C° 0 mm 2 mps 636 mmHg 51%
    19:00 +21°C° 0 mm 2 mps 636 mmHg 50%
    20:00 +19°C° 0 mm 2 mps 636 mmHg 50%
    21:00 +18°C° 0 mm 1 mps 636 mmHg 49%
    22:00 +18°C° 0 mm 1 mps 636 mmHg 47%
    23:00 +18°C° 0 mm 1 mps 636 mmHg 46%

    22 August, Thursday

    Time Temperature Precipitation Wind Pressure Humidity
    00:00 +16°C° 0 mm 1 mps 636 mmHg 44%
    01:00 +16°C° 0 mm 1 mps 636 mmHg 43%
    02:00 +16°C° 0 mm 1 mps 635 mmHg 43%
    03:00 +15°C° 0 mm 1 mps 635 mmHg 42%
    04:00 +15°C° 0 mm 1 mps 635 mmHg 44%
    05:00 +15°C° 0 mm 1 mps 635 mmHg 46%
    06:00 +15°C° 0 mm 1 mps 635 mmHg 49%
    07:00 +18°C° 0 mm 1 mps 636 mmHg 46%
    08:00 +20°C° 0 mm 2 mps 636 mmHg 43%
    09:00 +23°C° 0 mm 2 mps 637 mmHg 40%
    10:00 +24°C° 0 mm 2 mps 637 mmHg 39%
    11:00 +25°C° 0 mm 3 mps 637 mmHg 38%
    12:00 +26°C° 0 mm 3 mps 637 mmHg 37%
    13:00 +27°C° 0 mm 3 mps 636 mmHg 38%
    14:00 +27°C° 0 mm 3 mps 636 mmHg 39%
    15:00 +27°C° 0 mm 4 mps 635 mmHg 39%
    16:00 +26°C° 0 mm 3 mps 635 mmHg 44%
    17:00 +24°C° 0 mm 3 mps 635 mmHg 48%
    18:00 +23°C° 0 mm 2 mps 634 mmHg 53%
    19:00 +20°C° 0 mm 2 mps 634 mmHg 52%
    20:00 +18°C° 0 mm 2 mps 634 mmHg 51%
    21:00 +17°C° 0 mm 2 mps 634 mmHg 50%
    22:00 +16°C° 0 mm 2 mps 635 mmHg 49%
    23:00 +16°C° 0 mm 2 mps 635 mmHg 47%

    23 August, Friday

    Time Temperature Precipitation Wind Pressure Humidity
    00:00 +16°C° 0 mm 1 mps 635 mmHg 46%
    01:00 +15°C° 0 mm 1 mps 635 mmHg 48%
    02:00 +15°C° 0 mm 1 mps 634 mmHg 50%
    03:00 +14°C° 0 mm 1 mps 634 mmHg 52%
    04:00 +14°C° 0 mm 1 mps 634 mmHg 55%
    05:00 +14°C° 0 mm 1 mps 634 mmHg 57%
    06:00 +14°C° 0 mm 1 mps 635 mmHg 60%
    07:00 +16°C° 0 mm 1 mps 635 mmHg 55%
    08:00 +19°C° 0 mm 2 mps 636 mmHg 51%
    09:00 +21°C° 0 mm 2 mps 637 mmHg 46%
    10:00 +23°C° 0 mm 2 mps 637 mmHg 44%
    11:00 +25°C° 0 mm 2 mps 637 mmHg 42%
    12:00 +26°C° 0 mm 3 mps 637 mmHg 40%
    13:00 +26°C° 0 mm 3 mps 637 mmHg 40%
    14:00 +26°C° 0 mm 3 mps 637 mmHg 40%
    15:00 +27°C° 0 mm 4 mps 637 mmHg 40%
    16:00 +25°C° 0 mm 3 mps 636 mmHg 45%
    17:00 +24°C° 0 mm 3 mps 636 mmHg 49%
    18:00 +23°C° 0 mm 2 mps 636 mmHg 54%
    19:00 +20°C° 0 mm 2 mps 636 mmHg 56%
    20:00 +19°C° 0 mm 2 mps 636 mmHg 57%
    21:00 +18°C° 0 mm 1 mps 636 mmHg 59%
    22:00 +18°C° 0 mm 1 mps 636 mmHg 58%
    23:00 +16°C° 0 mm 1 mps 636 mmHg 58%

    24 August, Saturday

    Time Temperature Precipitation Wind Pressure Humidity
    00:00 +16°C° 0 mm 1 mps 636 mmHg 58%
    01:00 +16°C° 0 mm 1 mps 636 mmHg 60%
    02:00 +15°C° 0 mm 1 mps 635 mmHg 61%
    03:00 +15°C° 0 mm 1 mps 635 mmHg 63%
    04:00 +15°C° 0 mm 1 mps 635 mmHg 65%
    05:00 +15°C° 0 mm 1 mps 635 mmHg 66%
    06:00 +14°C° 0 mm 1 mps 636 mmHg 68%
    07:00 +18°C° 0 mm 1 mps 636 mmHg 62%
    08:00 +20°C° 0 mm 1 mps 637 mmHg 56%
    09:00 +23°C° 0 mm 2 mps 638 mmHg 50%
    10:00 +24°C° 0 mm 2 mps 638 mmHg 48%
    11:00 +25°C° 0 mm 2 mps 638 mmHg 45%
    12:00 +27°C° 0 mm 2 mps 638 mmHg 43%
    13:00 +27°C° 0 mm 2 mps 638 mmHg 43%
    14:00 +27°C° 0 mm 3 mps 638 mmHg 42%
    15:00 +27°C° 0 mm 3 mps 637 mmHg 42%
    16:00 +26°C° 0 mm 3 mps 637 mmHg 47%
    17:00 +25°C° 0 mm 2 mps 637 mmHg 52%
    18:00 +24°C° 0 mm 2 mps 636 mmHg 57%
    19:00 +21°C° 0.1 mm 2 mps 636 mmHg 61%
    20:00 +20°C° 0.1 mm 1 mps 636 mmHg 64%
    21:00 +18°C° 0.1 mm 1 mps 636 mmHg 68%
    22:00 +18°C° 0 mm 1 mps 636 mmHg 67%
    23:00 +18°C° 0 mm 1 mps 636 mmHg 66%
    Show more